TimeEST,TemperatureF,Dew PointF,Humidity,Sea Level PressureIn,VisibilityMPH,Wind Direction,Wind SpeedMPH,Gust SpeedMPH,PrecipitationIn,Events,Conditions,WindDirDegrees,DateUTC
12:15 AM,17.6,3.2,53,29.96,10.0,NW,8.1,18.4,N/A,,Overcast,310,2013-01-22 05:15:00
12:35 AM,17.6,3.2,53,29.96,10.0,WNW,9.2,23.0,N/A,,Overcast,290,2013-01-22 05:35:00
12:55 AM,15.8,1.4,53,29.96,10.0,WNW,11.5,18.4,N/A,,Mostly Cloudy,290,2013-01-22 05:55:00
1:15 AM,15.8,-0.4,49,29.96,10.0,NW,11.5,24.2,N/A,,Scattered Clouds,310,2013-01-22 06:15:00
1:35 AM,14.0,-0.4,53,29.98,10.0,WNW,15.0,23.0,N/A,,Mostly Cloudy,300,2013-01-22 06:35:00
1:55 AM,14.0,-0.4,53,29.98,10.0,WNW,9.2,-,N/A,,Mostly Cloudy,300,2013-01-22 06:55:00
2:15 AM,12.2,-2.2,53,29.99,10.0,WNW,9.2,17.3,N/A,,Scattered Clouds,290,2013-01-22 07:15:00
2:35 AM,12.2,-4.0,48,30.00,10.0,WNW,9.2,25.3,N/A,,Scattered Clouds,300,2013-01-22 07:35:00
5:35 AM,8.6,-7.6,48,30.04,10.0,WNW,10.4,19.6,N/A,,Clear,290,2013-01-22 10:35:00
5:55 AM,8.6,-5.8,52,30.05,10.0,WNW,11.5,-,N/A,,Clear,290,2013-01-22 10:55:00
6:15 AM,8.6,-4.0,57,30.05,10.0,WNW,5.8,18.4,N/A,,Scattered Clouds,300,2013-01-22 11:15:00
6:35 AM,8.6,-0.4,67,30.05,7.0,NNW,6.9,-,N/A,Snow,Light Snow,330,2013-01-22 11:35:00
6:55 AM,8.6,-2.2,62,30.06,10.0,WNW,5.8,-,N/A,,Mostly Cloudy,300,2013-01-22 11:55:00
7:15 AM,8.6,-4.0,57,30.07,10.0,WNW,5.8,-,N/A,,Mostly Cloudy,300,2013-01-22 12:15:00
7:35 AM,6.8,-4.0,61,30.08,10.0,WNW,6.9,16.1,N/A,,Mostly Cloudy,290,2013-01-22 12:35:00
7:55 AM,6.8,-4.0,61,30.09,10.0,NW,10.4,-,N/A,,Scattered Clouds,310,2013-01-22 12:55:00
8:15 AM,6.8,-4.0,61,30.10,10.0,NW,9.2,-,N/A,,Scattered Clouds,310,2013-01-22 13:15:00
8:35 AM,6.8,-5.8,56,30.10,10.0,WNW,9.2,18.4,N/A,,Scattered Clouds,300,2013-01-22 13:35:00
8:55 AM,8.6,-5.8,52,30.12,10.0,WNW,11.5,18.4,N/A,,Clear,300,2013-01-22 13:55:00
9:15 AM,8.6,-5.8,52,30.12,10.0,WNW,11.5,17.3,N/A,,Scattered Clouds,290,2013-01-22 14:15:00
9:35 AM,8.6,-5.8,52,30.13,10.0,WNW,11.5,23.0,N/A,,Scattered Clouds,300,2013-01-22 14:35:00
9:55 AM,8.6,-5.8,52,30.14,10.0,WNW,8.1,19.6,N/A,,Scattered Clouds,290,2013-01-22 14:55:00
10:15 AM,8.6,-7.6,48,30.14,10.0,NW,11.5,-,N/A,,Clear,310,2013-01-22 15:15:00
10:35 AM,8.6,-7.6,48,30.15,10.0,WNW,13.8,20.7,N/A,,Scattered Clouds,290,2013-01-22 15:35:00
10:55 AM,10.4,-7.6,44,30.15,10.0,WNW,12.7,19.6,N/A,,Scattered Clouds,300,2013-01-22 15:55:00
11:15 AM,10.4,-7.6,44,30.14,10.0,WNW,10.4,18.4,N/A,,Mostly Cloudy,290,2013-01-22 16:15:00
11:35 AM,10.4,-5.8,48,30.14,10.0,NW,10.4,-,N/A,,Mostly Cloudy,320,2013-01-22 16:35:00
11:55 AM,10.4,-7.6,44,30.14,10.0,NW,15.0,20.7,N/A,,Scattered Clouds,320,2013-01-22 16:55:00
12:15 PM,12.2,-7.6,41,30.13,10.0,WNW,9.2,20.7,N/A,,Scattered Clouds,300,2013-01-22 17:15:00
12:35 PM,12.2,-7.6,41,30.12,10.0,NW,9.2,19.6,N/A,,Scattered Clouds,310,2013-01-22 17:35:00
12:55 PM,12.2,-7.6,41,30.12,10.0,WNW,11.5,19.6,N/A,,Clear,290,2013-01-22 17:55:00
1:15 PM,12.2,-7.6,41,30.11,10.0,WNW,8.1,20.7,N/A,,Clear,300,2013-01-22 18:15:00
1:35 PM,12.2,-7.6,41,30.10,10.0,NW,11.5,17.3,N/A,,Clear,310,2013-01-22 18:35:00
1:55 PM,14.0,-7.6,38,30.10,10.0,NW,10.4,18.4,N/A,,Clear,310,2013-01-22 18:55:00
2:15 PM,14.0,-5.8,41,30.10,10.0,WNW,9.2,17.3,N/A,,Clear,300,2013-01-22 19:15:00
2:35 PM,14.0,-7.6,38,30.10,10.0,NW,11.5,18.4,N/A,,Clear,320,2013-01-22 19:35:00
2:55 PM,14.0,-7.6,38,30.10,10.0,WNW,12.7,17.3,N/A,,Clear,290,2013-01-22 19:55:00
3:15 PM,15.8,-7.6,35,30.10,10.0,WNW,9.2,16.1,N/A,,Clear,290,2013-01-22 20:15:00
3:35 PM,15.8,-9.4,32,30.10,10.0,WNW,6.9,-,N/A,,Clear,300,2013-01-22 20:35:00
3:55 PM,14.0,-11.2,32,30.10,10.0,WNW,9.2,16.1,N/A,,Clear,290,2013-01-22 20:55:00
4:15 PM,15.8,-9.4,32,30.10,10.0,WNW,5.8,16.1,N/A,,Clear,300,2013-01-22 21:15:00
4:55 PM,14.0,-13.0,29,30.12,10.0,WNW,10.4,20.7,N/A,,Clear,290,2013-01-22 21:55:00
5:15 PM,14.0,-13.0,29,30.12,10.0,NW,8.1,-,N/A,,Clear,310,2013-01-22 22:15:00
5:35 PM,12.2,-13.0,32,30.13,10.0,WNW,8.1,-,N/A,,Clear,290,2013-01-22 22:35:00
5:55 PM,12.2,-11.2,34,30.13,10.0,WNW,9.2,-,N/A,,Clear,290,2013-01-22 22:55:00
6:15 PM,12.2,-11.2,34,30.13,10.0,West,6.9,-,N/A,,Clear,280,2013-01-22 23:15:00
6:35 PM,12.2,-9.4,38,30.14,10.0,NW,3.5,-,N/A,,Clear,310,2013-01-22 23:35:00
6:55 PM,12.2,-9.4,38,30.14,10.0,Calm,Calm,-,N/A,,Clear,0,2013-01-22 23:55:00
7:15 PM,12.2,-9.4,38,30.15,10.0,NW,3.5,-,N/A,,Clear,320,2013-01-23 00:15:00
7:35 PM,12.2,-9.4,38,30.15,10.0,WNW,5.8,-,N/A,,Clear,290,2013-01-23 00:35:00
7:55 PM,12.2,-9.4,38,30.14,10.0,NW,5.8,-,N/A,,Clear,310,2013-01-23 00:55:00
8:15 PM,10.4,-9.4,41,30.14,10.0,West,6.9,-,N/A,,Clear,280,2013-01-23 01:15:00
8:35 PM,10.4,-9.4,41,30.13,10.0,WNW,3.5,-,N/A,,Clear,300,2013-01-23 01:35:00
8:55 PM,10.4,-7.6,44,30.15,10.0,WNW,3.5,-,N/A,,Clear,290,2013-01-23 01:55:00
9:15 PM,10.4,-7.6,44,30.15,10.0,West,4.6,-,N/A,,Clear,280,2013-01-23 02:15:00
9:35 PM,10.4,-7.6,44,30.16,10.0,West,5.8,-,N/A,,Clear,280,2013-01-23 02:35:00
9:55 PM,10.4,-7.6,44,30.15,10.0,West,6.9,-,N/A,,Clear,280,2013-01-23 02:55:00
10:15 PM,10.4,-7.6,44,30.15,10.0,West,4.6,-,N/A,,Clear,280,2013-01-23 03:15:00
10:35 PM,10.4,-7.6,44,30.15,10.0,West,5.8,-,N/A,,Clear,280,2013-01-23 03:35:00
10:55 PM,10.4,-7.6,44,30.16,10.0,WNW,4.6,-,N/A,,Clear,300,2013-01-23 03:55:00
11:15 PM,10.4,-7.6,44,30.16,10.0,WNW,5.8,-,N/A,,Clear,300,2013-01-23 04:15:00
11:35 PM,10.4,-7.6,44,30.17,10.0,WNW,8.1,-,N/A,,Clear,290,2013-01-23 04:35:00
11:55 PM,10.4,-7.6,44,30.16,10.0,West,9.2,-,N/A,,Clear,280,2013-01-23 04:55:00